Location: Chiroubles
(46.1812°N, 4.6660°E)
Time: 16:46:29
(UTC+00:00)

USA 276 - Pass Details

Date: 15 August 2020
Orbit: 386 x 394 km, 50.0° (Epoch: 21 September)

Event Time Altitude Azimuth Distance (km) Brightness Sun altitude
Rises 20:27:16 0° 292° (WNW) 2,276 7.5 -15.4°
Maximum altitude 20:32:31 83° 21° (NNE) 394 2.0 -16.1°
Enters shadow 20:33:25 44° 105° (ESE) 549 2.4 -16.2°
